Mount Airy, NC

7:51 AM EST on December 12, 2017 (GMT -0500)
Mount Airy-Surry County

Weather History for KMWK - April, 2014

Change the Weather History Date:

Monday, April 21, 2014

  Actual Average (KINT) Record (KINT)
Temperature  
Mean Temperature 58 °F -  
Max Temperature 75 °F 68 °F 89 °F (1971)
Min Temperature 40 °F 48 °F 25 °F (1983)
Degree Days  
Heating Degree Days 8    
Growing Degree Days 8 (Base 50)    
Moisture  
Dew Point 37 °F    
Average Humidity 46    
Maximum Humidity 83    
Minimum Humidity 23    
Precipitation  
Precipitation 0.00 in - - ()
Sea Level Pressure  
Sea Level Pressure 30.08 in    
Wind  
Wind Speed 3 mph (SE)    
Max Wind Speed 8 mph    
Max Gust Speed -    
Visibility 10 miles    
Events      
Averages and records for this station are not official NWS values.
T = Trace of Precipitation, MM = Missing Value Source: NWS Daily Summary

Daily Weather History Graph

Daily Weather History Graph

Search for Another Location

Airport or City:

Trip Planner

Search our weather history database for the weather conditions in past years. The results will help you decide how hot, cold, wet, or windy it might be!

Date:

Astronomy

Apr. 21, 2014 Rise Set
Actual Time 6:40 AM EDT 8:01 PM EDT
Civil Twilight 6:13 AM EDT 8:28 PM EDT
Nautical Twilight 5:41 AM EDT 9:00 PM EDT
Astronomical Twilight 5:07 AM EDT 9:34 PM EDT
Moon 1:27 AM EDT (4/21) 12:07 PM EDT (4/21)
Length of Visible Light 14h 14m
Length of Day
13h 20m
Waning Gibbous, 58% of the Moon is Illuminated
Apr 21
Waning Gibbous
Apr 22
Last Quarter
Apr 29
New
May 6
First Quarter
May 14
Full

Hourly Weather History & Observations

Time (EDT) Temp. Dew Point Humidity Pressure Visibility Wind Dir Wind Speed Gust Speed Precip Events Conditions
12:15 AM 57.2 °F 32.0 °F 38% 30.21 in 10.0 mi ENE 8.1 mph - N/A   Clear
12:35 AM 56.5 °F 32.0 °F 39% 30.21 in 10.0 mi ENE 8.1 mph - N/A   Clear
12:55 AM 55.6 °F 32.0 °F 41% 30.20 in 10.0 mi NE 5.8 mph - N/A   Clear
1:15 AM 55.4 °F 32.0 °F 41% 30.20 in 10.0 mi NE 5.8 mph - N/A   Clear
1:35 AM 54.7 °F 33.1 °F 44% 30.20 in 10.0 mi NE 5.8 mph - N/A   Clear
1:55 AM 54.0 °F 33.1 °F 45% 30.20 in 10.0 mi ENE 8.1 mph - N/A   Clear
2:15 AM 53.2 °F 33.8 °F 48% 30.19 in 10.0 mi ENE 8.1 mph - N/A   Clear
2:35 AM 52.7 °F 34.0 °F 49% 30.20 in 10.0 mi ENE 5.8 mph - N/A   Clear
2:55 AM 51.8 °F 34.2 °F 51% 30.19 in 10.0 mi Calm Calm - N/A   Clear
3:15 AM 49.3 °F 34.7 °F 57% 30.19 in 10.0 mi Calm Calm - N/A   Clear
3:35 AM 48.2 °F 34.5 °F 59% 30.19 in 10.0 mi Calm Calm - N/A   Clear
3:55 AM 47.5 °F 35.1 °F 62% 30.19 in 10.0 mi Calm Calm - N/A   Clear
4:15 AM 45.5 °F 35.6 °F 68% 30.18 in 10.0 mi Calm Calm - N/A   Clear
4:35 AM 46.6 °F 35.2 °F 65% 30.19 in 10.0 mi Calm Calm - N/A   Clear
4:55 AM 47.1 °F 35.4 °F 64% 30.18 in 10.0 mi Calm Calm - N/A   Clear
5:15 AM 44.1 °F 36.1 °F 74% 30.18 in 10.0 mi Calm Calm - N/A   Clear
5:35 AM 42.6 °F 36.7 °F 79% 30.18 in 10.0 mi Calm Calm - N/A   Clear
5:55 AM 44.6 °F 35.6 °F 71% 30.18 in 10.0 mi Calm Calm - N/A   Clear
6:15 AM 40.5 °F 35.1 °F 81% 30.17 in 10.0 mi Calm Calm - N/A   Clear
6:30 AM 41.4 °F 35.8 °F 81% 30.17 in 10.0 mi Calm Calm - N/A   Clear
6:55 AM 40.6 °F 35.2 °F 81% 30.17 in 10.0 mi Calm Calm - N/A   Clear
7:15 AM 40.3 °F 35.6 °F 83% 30.18 in 10.0 mi Calm Calm - N/A   Clear
7:30 AM 42.4 °F 36.9 °F 81% 30.18 in 10.0 mi Calm Calm - N/A   Clear
7:55 AM 45.1 °F 37.9 °F 76% 30.18 in 10.0 mi Calm Calm - N/A   Clear
8:15 AM 48.4 °F 38.7 °F 69% 30.18 in 10.0 mi Calm Calm - N/A   Clear
8:35 AM 50.9 °F 37.2 °F 59% 30.18 in 10.0 mi Calm Calm - N/A   Clear
8:55 AM 52.7 °F 36.7 °F 55% 30.18 in 10.0 mi Calm Calm - N/A   Clear
9:15 AM 54.0 °F 36.5 °F 52% 30.17 in 10.0 mi Calm Calm - N/A   Clear
9:35 AM 54.9 °F 36.9 °F 51% 30.17 in 10.0 mi Calm Calm - N/A   Clear
9:55 AM 56.3 °F 36.0 °F 46% 30.16 in 10.0 mi Calm Calm - N/A   Clear
10:15 AM 57.6 °F 38.1 °F 48% 30.16 in 10.0 mi East 3.5 mph - N/A   Clear
10:35 AM 59.4 °F 36.7 °F 43% 30.16 in 10.0 mi Calm Calm - N/A   Clear
10:55 AM 61.0 °F 36.5 °F 40% 30.15 in 10.0 mi Calm Calm - N/A   Clear
11:15 AM 61.7 °F 38.3 °F 42% 30.14 in 10.0 mi South 3.5 mph - N/A   Clear
11:35 AM 62.8 °F 37.4 °F 39% 30.13 in 10.0 mi SE 4.6 mph - N/A   Clear
11:55 AM 66.0 °F 36.3 °F 33% 30.12 in 10.0 mi Calm Calm - N/A   Clear
12:15 PM 65.7 °F 35.8 °F 33% 30.11 in 10.0 mi Calm Calm - N/A   Clear
12:35 PM 66.4 °F 35.8 °F 32% 30.10 in 10.0 mi Calm Calm - N/A   Clear
12:50 PM 67.5 °F 37.4 °F 33% 30.09 in 10.0 mi Calm Calm - N/A   Clear
1:15 PM 69.4 °F 37.4 °F 31% 30.07 in 10.0 mi SE 3.5 mph - N/A   Clear
1:35 PM 70.5 °F 35.4 °F 28% 30.05 in 10.0 mi Calm Calm - N/A   Clear
1:55 PM 71.2 °F 37.4 °F 29% 30.05 in 10.0 mi SW 4.6 mph - N/A   Clear
2:15 PM 72.5 °F 35.8 °F 26% 30.03 in 10.0 mi South 3.5 mph - N/A   Clear
2:35 PM 72.5 °F 36.1 °F 27% 30.02 in 10.0 mi Calm Calm - N/A   Clear
2:55 PM 74.7 °F 38.1 °F 27% 30.01 in 10.0 mi SSW 4.6 mph - N/A   Clear
3:15 PM 74.1 °F 37.2 °F 26% 30.00 in 10.0 mi SSE 3.5 mph - N/A   Clear
3:35 PM 75.2 °F 35.2 °F 23% 29.99 in 10.0 mi ESE 4.6 mph - N/A   Clear
3:55 PM 74.8 °F 37.6 °F 26% 29.98 in 10.0 mi ESE 3.5 mph - N/A   Clear
4:15 PM 74.5 °F 35.6 °F 24% 29.98 in 10.0 mi South 6.9 mph - N/A   Clear
4:35 PM 74.8 °F 35.2 °F 24% 29.97 in 10.0 mi South 4.6 mph - N/A   Clear
4:55 PM 74.8 °F 35.8 °F 24% 29.97 in 10.0 mi South 6.9 mph - N/A   Clear
5:15 PM 74.3 °F 37.0 °F 26% 29.97 in 10.0 mi SSE 6.9 mph - N/A   Clear
6:10 PM 73.9 °F 36.3 °F 25% 29.96 in 10.0 mi South 4.6 mph - N/A   Clear
6:35 PM 72.9 °F 37.2 °F 27% 29.96 in 10.0 mi Calm Calm - N/A   Clear
6:55 PM 72.5 °F 37.6 °F 28% 29.96 in 10.0 mi South 3.5 mph - N/A   Clear
7:15 PM 71.6 °F 36.7 °F 28% 29.95 in 10.0 mi Calm Calm - N/A   Clear
7:35 PM 70.2 °F 37.9 °F 31% 29.96 in 10.0 mi Calm Calm - N/A   Clear
7:55 PM 69.4 °F 38.3 °F 32% 29.95 in 10.0 mi Calm Calm - N/A   Clear
8:15 PM 67.5 °F 40.1 °F 37% 29.95 in 10.0 mi Calm Calm - N/A   Clear
8:35 PM 67.3 °F 39.4 °F 36% 29.95 in 10.0 mi Calm Calm - N/A   Clear
8:55 PM 66.0 °F 44.4 °F 46% 29.96 in 10.0 mi Calm Calm - N/A   Clear
9:15 PM 65.7 °F 39.9 °F 39% 29.96 in 10.0 mi Calm Calm - N/A   Clear
9:35 PM 64.6 °F 43.3 °F 46% 29.96 in 10.0 mi Calm Calm - N/A   Clear
9:55 PM 63.0 °F 44.4 °F 51% 29.96 in 10.0 mi Calm Calm - N/A   Clear
10:15 PM 64.2 °F 42.6 °F 45% 29.94 in 10.0 mi Calm Calm - N/A   Clear
10:35 PM 63.7 °F 43.5 °F 48% 29.95 in 10.0 mi Calm Calm - N/A   Clear
10:55 PM 61.9 °F 45.5 °F 55% 29.95 in 10.0 mi Calm Calm - N/A   Clear
11:15 PM 59.9 °F 46.0 °F 60% 29.94 in 10.0 mi Calm Calm - N/A   Clear
11:35 PM 59.7 °F 44.6 °F 57% 29.94 in 10.0 mi Calm Calm - N/A   Clear
11:55 PM 57.4 °F 46.2 °F 66% 29.93 in 10.0 mi Calm Calm - N/A   Clear